Location: Unspecified
(0.0000°N, 0.0000°E)
Time: 19:42:20
(UTC+00:00)

Tiros 1 despin weight - Pass Details

Date: 26 May 2022
Orbit: 591 x 639 km, 48.2° (Epoch: 25 June)

Event Time Altitude Azimuth Distance (km) Brightness Sun altitude
Rises 15:39:08 0° 241° (WSW) 2,923 ? 31.9°
Reaches altitude 10° 15:41:49 10° 255° (WSW) 2,006 ? 31.3°
Maximum altitude 15:45:33 24° 309° (NW) 1,289 ? 30.4°
Drops below altitude 10° 15:49:15 10° 4° (N) 1,978 ? 29.6°
Sets 15:51:54 0° 18° (NNE) 2,871 ? 29.0°
